Columbia Owens, SC

3:01 AM EDT on August 18, 2017 (GMT -0400)
Columbia Owens Downtown

Weather History for KCUB - April, 2013

Change the Weather History Date:

Sunday, April 28, 2013

  Actual Average Record
Temperature  
Mean Temperature 64 °F 67 °F  
Max Temperature 71 °F 80 °F 91 °F (2017)
Min Temperature 57 °F 55 °F 42 °F (2005)
Degree Days  
Heating Degree Days 1 2  
Month to date heating degree days 84 96  
Since 1 July heating degree days 2175 2299  
Cooling Degree Days 0 4  
Month to date cooling degree days 71 75  
Year to date cooling degree days 106 93  
Growing Degree Days 14 (Base 50)    
Moisture  
Dew Point 61 °F    
Average Humidity 91    
Maximum Humidity 93    
Minimum Humidity 72    
Precipitation  
Precipitation 1.38 in 0.09 in 1.38 in (2013)
Month to date precipitation 3.75 2.52  
Year to date precipitation 14.26 13.68  
Sea Level Pressure  
Sea Level Pressure 30.12 in    
Wind  
Wind Speed 2 mph (SSE)    
Max Wind Speed 10 mph    
Max Gust Speed 14 mph    
Visibility 6 miles    
Events Rain    
T = Trace of Precipitation, MM = Missing Value Source: NWS Daily Summary

Daily Weather History Graph

Daily Weather History Graph

Search for Another Location

Airport or City:

Trip Planner

Search our weather history database for the weather conditions in past years. The results will help you decide how hot, cold, wet, or windy it might be!

Date:

Astronomy

Apr. 28, 2013 Rise Set
Actual Time 6:37 AM EDT 8:05 PM EDT
Civil Twilight 6:11 AM EDT 8:32 PM EDT
Nautical Twilight 5:39 AM EDT 9:03 PM EDT
Astronomical Twilight 5:06 AM EDT 9:37 PM EDT
Moon 11:29 PM EDT (4/28) 8:57 AM EDT (4/28)
Length of Visible Light 14h 20m
Length of Day
13h 27m
Waning Gibbous, 89% of the Moon is Illuminated
Apr 28
Waning Gibbous
May 2
Last Quarter
May 9
New
May 18
First Quarter
May 25
Full

Hourly Weather History & Observations

Time (EDT) Temp. Dew Point Humidity Pressure Visibility Wind Dir Wind Speed Gust Speed Precip Events Conditions
12:53 AM 59.0 °F 53.1 °F 81% 30.25 in 10.0 mi Calm Calm - N/A   Overcast
1:53 AM 59.0 °F 51.1 °F 75% 30.22 in 10.0 mi Calm Calm - N/A   Mostly Cloudy
2:53 AM 59.0 °F 50.0 °F 72% 30.20 in 10.0 mi East 3.5 mph - N/A   Overcast
3:53 AM 59.0 °F 50.0 °F 72% 30.20 in 10.0 mi Calm Calm - N/A   Overcast
4:53 AM 57.9 °F 52.0 °F 81% 30.21 in 9.0 mi Calm Calm - 0.01 in Rain Light Rain
5:53 AM 57.9 °F 54.0 °F 87% 30.20 in 9.0 mi Calm Calm - 0.01 in Rain Light Rain
6:53 AM 57.9 °F 55.0 °F 90% 30.21 in 6.0 mi Calm Calm - 0.01 in Rain Light Rain
7:53 AM 57.9 °F 55.0 °F 90% 30.21 in 7.0 mi Calm Calm - 0.00 in Rain Light Rain
8:53 AM 59.0 °F 57.0 °F 93% 30.21 in 7.0 mi Calm Calm - 0.02 in Rain Light Rain
9:53 AM 59.0 °F 57.9 °F 96% 30.19 in 3.0 mi Calm Calm - 0.06 in Rain Rain
10:00 AM 59.0 °F 57.2 °F 94% 30.19 in 2.0 mi SE 4.6 mph - 0.03 in Rain Rain
10:14 AM 60.8 °F 57.2 °F 88% 30.19 in 4.0 mi SSE 5.8 mph - 0.04 in Rain Light Rain
10:53 AM 62.1 °F 60.1 °F 93% 30.19 in 7.0 mi Calm Calm - 0.05 in   Mostly Cloudy
11:18 AM 62.6 °F 60.8 °F 94% 30.20 in 7.0 mi South 3.5 mph - N/A   Overcast
11:53 AM 63.0 °F 60.1 °F 90% 30.19 in 6.0 mi South 3.5 mph - 0.00 in   Overcast
12:21 PM 62.6 °F 60.8 °F 94% 30.19 in 5.0 mi Calm Calm - 0.01 in Rain Light Rain
12:53 PM 63.0 °F 62.1 °F 97% 30.16 in 4.0 mi Calm Calm - 0.03 in Rain Light Rain
1:01 PM 62.6 °F 62.6 °F 100% 30.16 in 5.0 mi SE 3.5 mph - 0.00 in   Overcast
1:18 PM 64.4 °F 62.6 °F 94% 30.15 in 6.0 mi Calm Calm - 0.00 in   Overcast
1:53 PM 64.9 °F 63.0 °F 93% 30.14 in 7.0 mi SE 3.5 mph - 0.00 in   Mostly Cloudy
2:24 PM 66.2 °F 64.4 °F 94% 30.13 in 10.0 mi Variable 3.5 mph - N/A   Mostly Cloudy
2:53 PM 66.9 °F 64.0 °F 90% 30.12 in 10.0 mi SSE 6.9 mph - N/A   Overcast
3:21 PM 68.0 °F 64.4 °F 88% 30.11 in 10.0 mi Variable 4.6 mph - N/A   Mostly Cloudy
3:53 PM 69.1 °F 64.9 °F 87% 30.09 in 10.0 mi Variable 3.5 mph - N/A   Overcast
4:53 PM 71.1 °F 64.9 °F 81% 30.07 in 10.0 mi Variable 3.5 mph - N/A   Overcast
5:53 PM 70.0 °F 64.9 °F 84% 30.04 in 10.0 mi Variable 4.6 mph - N/A   Overcast
6:45 PM 69.8 °F 64.4 °F 83% 30.04 in 10.0 mi Calm Calm - N/A   Overcast
6:53 PM 68.0 °F 64.9 °F 90% 30.04 in 10.0 mi ESE 3.5 mph - N/A   Mostly Cloudy
7:37 PM 68.0 °F 66.2 °F 94% 30.04 in 2.5 mi Calm Calm - 0.05 in Rain Rain
7:45 PM 66.2 °F 66.2 °F 100% 30.04 in 2.0 mi Calm Calm - 0.09 in Rain Rain
7:53 PM 66.9 °F 66.0 °F 97% 30.03 in 2.5 mi ESE 3.5 mph - 0.11 in Rain Rain
8:01 PM 66.2 °F 66.2 °F 100% 30.04 in 4.0 mi Variable 3.5 mph - 0.01 in Rain Light Rain
8:29 PM 66.2 °F 64.4 °F 94% 30.04 in 7.0 mi Variable 4.6 mph - 0.02 in Rain Light Rain
8:53 PM 66.9 °F 64.9 °F 93% 30.05 in 2.5 mi Calm Calm - 0.12 in Rain Heavy Rain
9:06 PM 66.2 °F 64.4 °F 94% 30.05 in 4.0 mi Calm Calm - 0.04 in Rain Rain
9:37 PM 66.2 °F 64.4 °F 94% 30.07 in 2.5 mi Calm Calm - 0.13 in Rain Rain
9:53 PM 66.9 °F 64.9 °F 93% 30.07 in 2.5 mi Calm Calm - 0.20 in Rain Rain
10:05 PM 66.2 °F 64.4 °F 94% 30.08 in 3.0 mi Calm Calm - 0.04 in Rain Rain
10:17 PM 66.2 °F 64.4 °F 94% 30.08 in 2.5 mi Calm Calm - 0.09 in Rain Rain
10:37 PM 66.2 °F 64.4 °F 94% 30.09 in 3.0 mi Calm Calm - 0.20 in Rain Rain
10:41 PM 66.2 °F 64.4 °F 94% 30.09 in 2.5 mi Calm Calm - 0.25 in Rain Heavy Rain
10:48 PM 66.2 °F 64.4 °F 94% 30.09 in 1.8 mi WSW 4.6 mph - 0.31 in Rain Heavy Rain
10:53 PM 66.0 °F 64.9 °F 96% 30.09 in 2.0 mi Variable 6.9 mph - 0.34 in Rain Heavy Rain
11:01 PM 62.6 °F 60.8 °F 94% 30.09 in 2.5 mi WNW 6.9 mph - 0.06 in Rain Heavy Rain
11:09 PM 62.6 °F 60.8 °F 94% 30.09 in 1.5 mi Variable 5.8 mph - 0.20 in Rain Heavy Rain
11:20 PM 62.6 °F 60.8 °F 94% 30.08 in 3.0 mi Calm Calm - 0.24 in Rain Rain
11:44 PM 64.4 °F 62.6 °F 94% 30.08 in 7.0 mi South 3.5 mph - 0.27 in Rain Light Rain
11:53 PM 64.9 °F 63.0 °F 93% 30.07 in 8.0 mi Calm Calm - 0.28 in Rain Light Rain